Regional Weather Roundup
Issued by NWS

Home | Current Version | Previous Version | Text Only | Print | Product List | Glossary On
Versions: 1 2 3 4 5 6 7 8 9 10 11 12 13 14 15 16 17 18 19 20 21 22 23 24 25 26 27 28 29 30 31 32 33 34 35 36 37 38 39 40 41 42 43 44 45 46 47 48 49 50
000
ASUS43 KOAX 261402
RWRNE

WEATHER ROUNDUP FOR NEBRASKA
NATIONAL WEATHER SERVICE OMAHA NE
800 AM CST SUN FEB 26 2017

NOTES: SATELLITE DATA IS BEING USED TO AUGMENT CLOUD COVER ABOVE
       12000 FEET.
       "FAIR" INDICATES FEW OR NO CLOUDS BELOW 12,000 FEET WITH NO
       SIGNIFICANT WEATHER AND/OR OBSTRUCTIONS TO VISIBILITY.

  * THESE STATIONS DO NOT REPORT WEATHER SUCH AS RAIN...SNOW OR FOG.

NEZ001>004-019>022-054>056-261500-
NEBRASKA PANHANDLE

CITY           SKY/WX    TMP DP  RH WIND       PRES   REMARKS
SCOTTSBLUFF    CLOUDY     7   0  73 NW9       29.83S WCI  -7
ALLIANCE       CLOUDY    -2  -7  79 W10       29.81R WCI -19
CHADRON        CLEAR      2  -5  72 W10       29.83R WCI -14
KIMBALL        CLEAR     10   1  69 W10       29.81R WCI  -4
SIDNEY         CLEAR     16   5  62 W16       29.83R WCI   1
$$

NEZ057>060-069>072-079>082-261500-
SOUTHWEST NEBRASKA

CITY           SKY/WX    TMP DP  RH WIND       PRES   REMARKS
NORTH PLATTE   CLEAR     14   8  77 W6        29.87S WCI   5
IMPERIAL       CLEAR     19   8  62 NW8       29.88R WCI   9
LEXINGTON      CLEAR     21  14  73 CALM      29.89R
MCCOOK         CLEAR     18  14  84 W7        29.92R WCI   9
OGALLALA       CLEAR     16   8  70 SW6       29.86R WCI   8
$$

NEZ005>010-023>029-035>040-094-261500-
NORTH CENTRAL NEBRASKA

CITY           SKY/WX    TMP DP  RH WIND       PRES   REMARKS
VALENTINE      CLEAR      7   0  73 SW10      29.82R WCI  -8
AINSWORTH      CLEAR     13   8  80 W8        29.82R WCI   1
BROKEN BOW     CLEAR     20   9  62 W5        29.85R WCI  13
O`NEILL        CLEAR     16  10  75 W7        29.83R WCI   6
ORD            CLEAR     18   9  68 NE3       29.86R
THEDFORD       CLEAR     12   5  73 W6        29.84R WCI   3
$$

NEZ041-046>049-061>064-073>077-083>087-261500-
SOUTH CENTRAL NEBRASKA

CITY           SKY/WX    TMP DP  RH WIND       PRES   REMARKS
GRAND ISLAND   CLEAR     26  17  68 W13       29.89R WCI  15
AURORA         CLEAR     26  18  72 W8        29.89R WCI  17
HASTINGS       CLEAR     27  17  66 SW8       29.91R WCI  19
HEBRON         CLEAR     31  22  68 W8        29.94R WCI  23
HOLDREGE       CLEAR     26  13  59 W10       29.90S WCI  16
KEARNEY *      CLEAR     27  12  54 W12       29.90R WCI  16
YORK           CLEAR     27  19  74 SW9       29.90R WCI  17
$$

NEZ011>018-030>034-042>045-261500-
NORTHEAST NEBRASKA

CITY           SKY/WX    TMP DP  RH WIND       PRES   REMARKS
NORFOLK        CLEAR     19   9  65 W5        29.85R WCI  12
ALBION         CLEAR     16   8  72 W5        29.87R WCI   9
BLAIR          CLEAR     28  20  74 SW8       29.88R WCI  19
FREMONT        CLEAR     31  18  58 W14G22    29.89R WCI  21
TEKAMAH        CLEAR     23  15  71 SW10      29.88R WCI  12
WAYNE          CLEAR     20  11  68 W10       29.84R WCI   9
$$

NEZ050>053-065>068-078-088>093-261500-
SOUTHEAST NEBRASKA

CITY           SKY/WX    TMP DP  RH WIND       PRES   REMARKS
LINCOLN        CLEAR     31  20  63 W10       29.93R WCI  22
OMAHA EPPLEY   PTCLDY    33  21  61 SW9       29.90R WCI  25
BEATRICE       CLEAR     34  22  61 SW10      29.92R WCI  26
FALLS CITY     CLOUDY    35  21  56 S16       29.95F WCI  25
NEBRASKA CITY  PTCLDY    32  19  59 SW9       29.92R WCI  24
PLATTSMOUTH    CLEAR     31  20  64 SW8       29.91R WCI  24
$$

NEZ044-045-051>053-067-261500-
OMAHA AREA

CITY           SKY/WX    TMP DP  RH WIND       PRES   REMARKS
OMAHA EPPLEY   PTCLDY    33  21  61 SW9       29.90R WCI  25
BLAIR          CLEAR     28  20  74 SW8       29.88R WCI  19
FREMONT        CLEAR     31  18  58 W14G22    29.89R WCI  21
MILLARD        CLEAR     35  22  58 SW7       29.90S WCI  30
OFFUTT AFB     CLEAR     31  20  64 SW8       29.90R WCI  24
PLATTSMOUTH    CLEAR     31  20  64 SW8       29.91R WCI  24
WAHOO          FAIR      29  20  67 SW10      29.90R WCI  20
$$




USA.gov is the U.S. government's official web portal to all federal, state and local government web resources and services.